FW1436 Weather Reports


time (UTC)temp
F
wind
direction
speed
knots
gust
knots
rain 1hr
in
rain 24hr
in
rain mn
in
humidity
%
barometer
mb
20260906141515 96 87 2.6 9.6 0.00 0.00 0.00 27 1015.7
20260906140013 95 238 2.6 9.6 0.00 0.00 0.00 26 1015.9
20260906134518 95 143 3.5 10.4 0.00 0.00 0.00 27 1016.1
20260906133011 95 184 4.3 9.6 0.00 0.00 0.00 26 1016.1
20260906131511 95 285 3.5 7.8 0.00 0.00 0.00 26 1016.1
20260906130008 95 213 1.7 6.1 0.00 0.00 0.00 27 1016.2
20260906124507 95 93 1.7 7.0 0.00 0.00 0.00 28 1016.3
20260906123005 93 12 1.7 7.8 0.00 0.00 0.00 28 1016.4
20260906121502 93 168 0.9 5.2 0.00 0.00 0.00 28 1016.6
20260906120058 92 195 0.0 7.0 0.00 0.00 0.00 29 1016.7
20260906114559 91 245 2.6 6.1 0.00 0.00 0.00 30 1016.9
20260906113051 90 96 0.9 5.2 0.00 0.00 0.00 30 1016.9
20260906111550 90 164 0.9 3.5 0.00 0.00 0.00 31 1017.1
20260906110048 89 309 1.7 4.3 0.00 0.00 0.00 31 1017.2
20260906104555 88 119 0.0 2.6 0.00 0.00 0.00 32 1017.5
20260906103042 87 130 1.7 3.5 0.00 0.00 0.00 33 1017.5
20260906101540 86 111 0.9 2.6 0.00 0.00 0.00 33 1017.7
20260906100036 85 216 0.9 4.3 0.00 0.00 0.00 36 1017.7
20260906094556 84 107 0.9 5.2 0.00 0.00 0.00 37 1017.7
20260906093048 84 99 0.9 4.3 0.00 0.00 0.00 36 1017.6
20260906091533 83 108 0.9 3.5 0.00 0.00 0.00 36 1017.7
20260906090032 82 104 0.9 4.3 0.00 0.00 0.00 37 1017.7
20260906084525 81 85 0.9 3.5 0.00 0.00 0.00 41 1017.7
20260906083041 79 96 0.9 2.6 0.00 0.00 0.00 42 1017.7
20260906081530 78 103 0.0 0.9 0.00 0.00 0.00 45 1017.8
20260906080032 76 103 0.0 0.0 0.00 0.00 0.00 47 1017.7
20260906074528 75 103 0.0 0.0 0.00 0.00 0.00 46 1017.7
20260906073025 75 103 0.0 0.9 0.00 0.00 0.00 46 1017.6
20260906071520 75 103 0.0 0.0 0.00 0.00 0.00 48 1017.4
20260906070019 73 103 0.0 0.9 0.00 0.00 0.00 51 1017.5
20260906064516 0 0.0 0.0 0.00 0.00 0.00 1017.4
20260906063015 0 0.0 0.0 0.00 0.00 0.00 1017.3
20260906061508 0 0.0 0.0 0.00 0.00 0.00 1017.3
20260906060004 0 0.0 0.0 0.00 0.00 0.00 1017.0
20260906054610 0 0.0 0.0 0.00 0.00 0.00 1016.9
20260906053056 0 0.0 0.0 0.00 0.00 0.00 1016.9
20260906051603 0 0.0 0.0 0.00 0.00 0.00 1016.7
20260906050051 0 0.0 0.0 0.00 0.00 0.00 1016.7
20260906044544 0 115 0.0 0.9 0.00 0.00 0.00 1016.8
20260906043041 76 75 0.0 0.9 0.00 0.00 0.00 44 1016.5
20260906041539 77 73 0.0 1.7 0.00 0.00 0.00 43 1016.5
20260906040038 78 72 0.9 3.5 0.00 0.00 0.00 42 1016.4
20260906034537 77 314 0.9 3.5 0.00 0.00 0.00 43 1016.8
20260906033045 77 100 2.6 5.2 0.00 0.00 0.00 43 1016.5
20260906031539 77 18 0.0 1.7 0.00 0.00 0.00 43 1016.9
20260906030033 77 54 0.0 0.0 0.00 0.00 0.00 43 1017.0
20260906024542 77 68 0.0 3.5 0.00 0.00 0.00 43 1016.7
20260906023029 78 99 0.9 2.6 0.00 0.00 0.00 42 1016.7
20260906021528 77 98 0.0 1.7 0.00 0.00 0.00 42 1016.6
20260906020026 77 119 0.0 1.7 0.00 0.00 0.00 42 1016.6
20260906014538 78 103 0.9 2.6 0.00 0.00 0.00 42 1016.7
20260906013038 78 63 0.0 1.7 0.00 0.00 0.00 41 1016.9
20260906011523 78 127 0.0 1.7 0.00 0.00 0.00 41 1016.9
20260906010027 78 86 0.0 1.7 0.00 0.00 0.00 42 1017.0
20260906004521 78 105 0.0 0.9 0.00 0.00 0.00 41 1017.0
20260906003018 79 78 0.9 1.7 0.00 0.00 0.00 41 1017.0
20260906001521 79 110 0.0 3.5 0.00 0.00 0.00 40 1017.2
20260906000014 79 248 0.0 1.7 0.00 0.00 0.00 39 1017.2
20260905234513 79 84 2.6 6.1 0.00 0.00 0.00 39 1016.9
20260905233012 79 242 0.0 1.7 0.00 0.00 0.00 39 1016.7
20260905231511 79 91 0.0 3.5 0.00 0.00 0.00 40 1016.8
20260905230006 80 63 0.0 1.7 0.00 0.00 0.00 38 1016.9
20260905224506 80 50 0.0 2.6 0.00 0.00 0.00 38 1016.9
20260905223003 81 117 0.0 2.6 0.00 0.00 0.00 38 1017.0
20260905221501 81 122 0.0 0.9 0.00 0.00 0.00 38 1016.9
20260905220057 81 90 0.0 1.7 0.00 0.00 0.00 38 1016.9
20260905214601 81 105 0.9 2.6 0.00 0.00 0.00 38 1016.8
20260905213104 81 109 1.7 3.5 0.00 0.00 0.00 38 1017.0
20260905211600 81 81 0.0 0.9 0.00 0.00 0.00 39 1017.0
20260905210058 82 81 0.0 0.9 0.00 0.00 0.00 38 1017.0
20260905204554 82 279 0.0 0.9 0.00 0.00 0.00 38 1016.9
20260905203055 82 275 0.0 2.6 0.00 0.00 0.00 37 1016.8
20260905201609 83 297 0.0 3.5 0.00 0.00 0.00 37 1016.8
20260905200049 84 233 0.9 1.7 0.00 0.00 0.00 36 1016.6
20260905194549 84 59 0.9 3.5 0.00 0.00 0.00 35 1016.3
20260905193059 84 280 2.6 7.8 0.00 0.00 0.00 35 1015.8
20260905191546 85 240 2.6 8.7 0.00 0.00 0.00 34 1015.6
20260905190145 85 269 2.6 7.8 0.00 0.00 0.00 34 1015.5
20260905184549 85 241 0.9 6.1 0.00 0.00 0.00 34 1015.3
20260905183044 86 264 0.9 4.3 0.00 0.00 0.00 34 1015.4
20260905181559 87 296 2.6 9.6 0.00 0.00 0.00 33 1015.3
20260905180043 88 252 3.5 7.8 0.00 0.00 0.00 31 1015.3
20260905174541 89 259 0.9 8.7 0.00 0.00 0.00 31 1015.1
20260905173043 89 217 1.7 6.1 0.00 0.00 0.00 30 1015.1
20260905171541 90 256 0.0 3.5 0.00 0.00 0.00 31 1015.0
20260905170040 90 288 2.6 5.2 0.00 0.00 0.00 30 1015.1
20260905164538 91 136 2.6 7.0 0.00 0.00 0.00 29 1015.1
20260905163039 91 246 0.9 5.2 0.00 0.00 0.00 29 1015.0
20260905161551 92 233 0.9 6.1 0.00 0.00 0.00 27 1015.0
20260905160038 92 287 1.7 5.2 0.00 0.00 0.00 27 1015.0
20260905154540 92 242 0.9 6.1 0.00 0.00 0.00 27 1015.1
20260905153037 92 308 2.6 5.2 0.00 0.00 0.00 27 1015.1
20260905151535 92 354 2.6 6.1 0.00 0.00 0.00 26 1015.0
20260905150036 92 322 1.7 6.1 0.00 0.00 0.00 27 1014.9
20260905144534 93 302 2.6 8.7 0.00 0.00 0.00 26 1014.9
20260905143036 93 339 2.6 10.4 0.00 0.00 0.00 27 1015.0